This demonstration page uses our WeatherBlox Daily Observations layout. Learn more.

Left ArrowRight Arrow

39.01783, -85.05884

Hourly Observations for December 3, 2017

Temp ( °F °C ) Dew Point ( °F °C ) Humidity (%) Winds ( mph kmh ) Pressure ( in mb ) Visibility ( mi km ) Precip ( " mm )
12:52 am 00:52 Clear 32 0 29 -1.7 88 88 Calm 30.16 1021 9 14 0.00 0.00
1:52 am 01:52 Clear 35 1.7 30 -1.1 82 82 W 3 6 30.17 1022 10 16 0.00 0.00
2:52 am 02:52 Clear 33 0.6 30 -1.1 89 89 Calm 30.18 1022 9 14 0.00 0.00
3:52 am 03:52 Clear 32 0 29 -1.7 88 88 SSW 3 6 30.18 1022 9 14 0.00 0.00
4:52 am 04:52 Clear 31 -0.6 28 -2.2 89 89 Calm 30.19 1022 10 16 0.00 0.00
5:52 am 05:52 Clear 28 -2.2 28 -2.2 100 100 S 5 7 30.20 1023 10 16 0.00 0.00
6:52 am 06:52 Clear 31 -0.6 29 -1.7 92 92 Calm 30.22 1023 8 13 0.00 0.00
7:52 am 07:52 Sunny 29 -1.7 27 -2.8 92 92 SSW 3 6 30.24 1024 8 13 0.00 0.00
8:52 am 08:52 Sunny 35 1.7 31 -0.6 85 85 Calm 30.25 1024 8 13 0.00 0.00
9:52 am 09:52 Sunny 42 5.6 38 3.3 85 85 Calm 30.27 1025 10 16 0.00 0.00
10:52 am 10:52 Sunny 50 10 37 2.8 61 61 S 5 7 30.26 1025 10 16 0.00 0.00
11:52 am 11:52 Sunny 53 11.7 35 1.7 51 51 VRB 3 6 30.25 1024 10 16 0.00 0.00
12:52 pm 12:52 Mostly Sunny 55 12.8 36 2.2 49 49 VRB 3 6 30.23 1024 10 16 0.00 0.00
1:52 pm 13:52 Partly Cloudy 57 13.9 36 2.2 45 45 W 5 7 30.22 1023 10 16 0.00 0.00
2:52 pm 14:52 Mostly Sunny 57 13.9 36 2.2 45 45 SSE 3 6 30.20 1023 10 16 0.00 0.00
3:52 pm 15:52 Mostly Sunny 56 13.3 37 2.8 49 49 S 6 9 30.20 1023 10 16 0.00 0.00
4:52 pm 16:52 Partly Cloudy 54 12.2 35 1.7 49 49 Calm 30.21 1023 10 16 0.00 0.00
5:52 pm 17:52 Partly Cloudy 50 10 35 1.7 57 57 Calm 30.21 1023 10 16 0.00 0.00
6:52 pm 18:52 Partly Cloudy 47 8.3 35 1.7 63 63 Calm 30.22 1023 10 16 0.00 0.00
7:52 pm 19:52 Partly Cloudy 44 6.7 34 1.1 68 68 SE 3 6 30.22 1023 10 16 0.00 0.00
8:52 pm 20:52 Partly Cloudy 44 6.7 33 0.6 65 65 SE 6 9 30.20 1023 10 16 0.00 0.00
9:52 pm 21:52 Partly Cloudy 43 6.1 33 0.6 68 68 ESE 5 7 30.19 1023 10 16 0.00 0.00
10:52 pm 22:52 Partly Cloudy 43 6.1 32 0 65 65 SSE 6 9 30.18 1022 10 16 0.00 0.00
11:52 pm 23:52 Clear 41 5 32 0 70 70 SSE 6 9 30.18 1022 10 16 0.00 0.00

Powered by AerisWeather